CW7847 Weather Reports


time (UTC)temp
F
wind
direction
speed
knots
gust
knots
rain 1hr
in
rain 24hr
in
rain mn
in
humidity
%
barometer
mb
20260510104554 59 360 0.0 0.0 0.00 0.00 0.00 88 1016.5
20260510103058 59 360 0.0 0.0 0.00 0.00 0.00 89 1016.2
20260510101553 59 360 0.0 0.0 0.00 0.00 0.00 88 1016.0
20260510100046 60 360 0.0 0.0 0.00 0.00 0.00 88 1015.5
20260510094547 60 360 0.0 0.0 0.00 0.00 0.00 88 1015.3
20260510093012 60 360 0.0 0.0 0.00 0.00 0.00 88 1015.2
20260510091509 60 360 0.0 0.0 0.00 0.00 0.00 88 1015.0
20260510090005 61 360 0.0 0.0 0.00 0.00 0.00 88 1014.6
20260510084504 61 360 0.0 0.0 0.00 0.00 0.00 87 1014.8
20260510083003 62 360 0.0 0.0 0.00 0.00 0.00 87 1014.7
20260510081503 62 360 0.0 0.0 0.00 0.00 0.00 87 1014.7
20260510080057 62 222 0.0 0.0 0.00 0.00 0.00 87 1014.7
20260510074556 62 222 0.0 0.0 0.00 0.00 0.00 87 1014.7
20260510073103 63 222 0.0 0.0 0.00 0.00 0.00 87 1014.6
20260510071553 63 222 0.0 0.0 0.00 0.00 0.00 86 1014.7
20260510070049 64 222 0.0 0.0 0.00 0.00 0.00 86 1014.7
20260510064545 64 222 0.0 0.0 0.00 0.00 0.00 85 1014.6
20260510063043 65 222 0.0 0.0 0.00 0.00 0.00 85 1014.3
20260510061544 65 222 0.0 0.0 0.00 0.00 0.00 85 1014.4
20260510060036 65 222 0.0 0.0 0.00 0.00 0.00 85 1014.5
20260510054542 65 222 0.0 0.0 0.00 0.00 0.00 85 1014.5
20260510053034 66 221 0.0 0.0 0.00 0.00 0.00 85 1014.6
20260510051534 66 221 0.0 0.0 0.00 0.00 0.00 84 1014.5
20260510050026 66 221 0.0 0.0 0.00 0.00 0.00 84 1014.4
20260510044526 67 221 0.0 0.0 0.00 0.00 0.00 83 1014.3
20260510043025 67 221 0.0 0.0 0.00 0.00 0.00 83 1014.2
20260510041524 67 221 0.0 0.0 0.00 0.00 0.00 83 1014.3
20260510040023 67 221 0.0 0.0 0.00 0.00 0.00 84 1014.3
20260510034519 66 207 0.0 0.0 0.00 0.00 0.00 83 1014.5
20260510033018 66 207 0.0 0.0 0.00 0.00 0.00 82 1014.5
20260510031517 66 207 0.0 0.0 0.00 0.00 0.00 82 1014.6
20260510030046 67 207 0.0 0.0 0.00 0.00 0.00 81 1014.4
20260510024605 67 207 0.0 0.0 0.00 0.00 0.00 80 1014.3
20260510023041 68 207 0.0 0.0 0.00 0.00 0.00 80 1014.0
20260510021539 68 207 0.0 0.0 0.00 0.00 0.00 80 1013.8
20260510020038 69 246 0.0 0.0 0.00 0.00 0.00 78 1013.6
20260510014537 70 246 0.0 0.0 0.00 0.00 0.00 77 1013.3
20260510013038 71 246 0.0 0.0 0.00 0.00 0.00 76 1013.0
20260510011534 72 246 0.0 0.0 0.00 0.00 0.00 74 1012.8
20260510010033 73 246 0.0 0.0 0.00 0.00 0.00 72 1012.7
20260510004538 75 246 0.0 0.0 0.00 0.00 0.00 71 1012.3
20260510003003 77 246 0.0 0.0 0.00 0.00 0.00 69 1012.1
20260510001506 78 246 0.0 0.0 0.00 0.00 0.00 70 1011.9
20260510000104 79 246 0.0 0.0 0.00 0.00 0.00 67 1012.0
20260509234559 79 247 0.0 0.0 0.00 0.00 0.00 66 1011.8
20260509233056 80 250 0.0 4.3 0.00 0.00 0.00 67 1012.0
20260509231605 81 242 0.0 0.0 0.00 0.00 0.00 66 1011.9
20260509230052 81 232 0.0 0.9 0.00 0.00 0.00 67 1011.7
20260509224550 80 261 0.0 0.0 0.00 0.00 0.00 67 1011.9
20260509223052 80 192 0.0 0.0 0.00 0.00 0.00 68 1011.7
20260509221548 80 232 0.0 0.0 0.00 0.00 0.00 69 1011.3
20260509220048 80 315 0.0 0.0 0.00 0.00 0.00 67 1011.4
20260509214546 80 112 0.0 0.0 0.00 0.00 0.00 67 1011.4
20260509213046 80 122 0.0 0.0 0.00 0.00 0.00 69 1011.7
20260509211553 80 234 0.9 4.3 0.00 0.00 0.00 68 1011.7
20260509210053 79 250 0.9 7.0 0.00 0.00 0.00 70 1011.8
20260509204542 79 300 0.0 2.6 0.00 0.00 0.00 70 1011.8
20260509203041 79 158 0.0 0.0 0.00 0.00 0.00 71 1012.2
20260509201541 78 123 0.0 0.0 0.00 0.00 0.00 71 1012.3
20260509200047 80 265 0.0 0.0 0.00 0.00 0.00 69 1012.4
20260509194535 79 277 0.0 0.0 0.00 0.00 0.00 69 1012.2
20260509193032 79 259 0.0 0.0 0.00 0.00 0.00 69 1012.5
20260509191531 79 217 0.0 7.0 0.00 0.00 0.00 68 1012.5
20260509190038 79 247 0.0 2.6 0.00 0.00 0.00 70 1012.5
20260509184558 79 48 0.0 3.5 0.00 0.00 0.00 70 1012.5
20260509183057 78 221 0.0 0.0 0.00 0.00 0.00 67 1012.7
20260509181527 78 292 0.0 1.7 0.00 0.00 0.00 72 1012.7
20260509180025 77 274 0.0 0.0 0.00 0.00 0.00 72 1012.9
20260509174551 76 231 0.0 3.5 0.00 0.00 0.00 74 1013.1
20260509173115 76 324 0.0 3.5 0.00 0.00 0.00 74 1013.1
20260509171548 76 243 0.0 6.1 0.00 0.00 0.00 74 1013.1
20260509170054 76 99 0.0 0.0 0.00 0.00 0.00 76 1013.1
20260509164542 75 157 0.0 0.0 0.00 0.00 0.00 77 1013.3
20260509163041 74 355 0.0 0.0 0.00 0.00 0.00 78 1013.4
20260509161540 73 42 0.0 5.2 0.00 0.00 0.00 81 1013.4
20260509160034 73 57 0.0 1.7 0.00 0.00 0.00 80 1013.3
20260509154530 73 68 0.0 3.5 0.00 0.00 0.00 83 1013.2
20260509153033 71 259 1.7 3.5 0.00 0.00 0.00 84 1013.0
20260509151521 70 306 0.9 6.1 0.00 0.00 0.00 85 1012.9
20260509150018 69 240 0.0 4.3 0.00 0.00 0.00 88 1012.8
20260509144515 67 255 0.9 4.3 0.00 0.00 0.00 89 1012.8
20260509143013 65 203 0.9 6.1 0.00 0.00 0.00 90 1012.8
20260509141505 64 287 0.9 3.5 0.00 0.00 0.00 90 1012.9
20260509140003 63 250 1.7 4.3 0.00 0.00 0.00 90 1013.0
20260509134559 62 242 0.9 4.3 0.00 0.00 0.00 90 1012.9
20260509133104 61 265 1.7 6.1 0.00 0.00 0.00 90 1012.9
20260509131530 61 252 0.0 6.1 0.00 0.00 0.00 90 1013.1
20260509130051 60 253 2.6 7.0 0.00 0.00 0.00 89 1013.3
20260509124551 60 238 0.0 3.5 0.00 0.00 0.00 89 1013.2
20260509123117 59 225 0.0 2.6 0.00 0.00 0.00 88 1013.3
20260509121516 58 180 0.0 0.0 0.00 0.00 0.00 89 1013.0
20260509120021 57 360 0.0 0.0 0.00 0.00 0.00 88 1012.7
20260509114613 55 360 0.0 0.0 0.00 0.00 0.00 88 1012.9
20260509113046 55 360 0.0 0.0 0.00 0.00 0.00 88 1012.8
20260509111541 55 360 0.0 0.0 0.00 0.00 0.00 88 1012.2
20260509110046 55 360 0.0 0.0 0.00 0.00 0.00 87 1012.2